MST,Max TemperatureF,Mean TemperatureF,Min TemperatureF,Max Dew PointF,MeanDew PointF,Min DewpointF,Max Humidity, Mean Humidity, Min Humidity, Max Sea Level PressureIn, Mean Sea Level PressureIn, Min Sea Level PressureIn, Max VisibilityMiles, Mean VisibilityMiles, Min VisibilityMiles, Max Wind SpeedMPH, Mean Wind SpeedMPH, Max Gust SpeedMPH,PrecipitationIn, CloudCover, Events, WindDirDegrees
2013-1-1,37,26,14,22,15,10,84,67,36,30.26,30.21,30.16,10,10,10,8,4,,0.00,0,,242
2013-1-2,45,28,12,14,11,6,77,55,24,30.24,30.16,30.05,10,10,10,8,3,,0.00,0,,263
2013-1-3,42,30,18,11,7,2,68,44,19,30.28,30.19,30.11,10,10,10,17,6,22,0.00,0,,326
2013-1-4,45,30,16,11,6,-5,68,44,13,30.36,30.28,30.21,10,10,9,8,4,,0.00,0,,215
2013-1-5,50,33,16,12,8,1,65,43,14,30.38,30.29,30.21,10,10,10,7,4,,0.00,0,,197
2013-1-6,51,38,24,17,11,9,60,39,18,30.19,30.04,29.86,10,10,10,20,4,29,0.00,0,,146
2013-1-7,50,36,21,19,16,12,75,50,25,30.02,29.92,29.83,10,10,10,10,3,,0.00,1,,292
2013-1-8,57,40,24,20,13,7,60,40,15,30.17,30.07,29.97,10,10,10,10,4,,0.00,0,,277
2013-1-9,61,42,24,23,18,8,77,48,12,30.27,30.14,29.99,10,10,10,10,5,,0.00,0,,201
2013-1-10,48,40,30,27,19,12,65,43,30,29.94,29.78,29.65,10,10,6,24,9,38,0.00,3,Snow,190
2013-1-11,33,25,16,16,5,-7,69,45,18,29.98,29.91,29.74,10,10,10,18,12,16,0.00,1,,245
2013-1-12,32,22,12,15,3,-2,77,50,23,30.08,30.00,29.94,10,9,2,10,5,17,0.00,2,Snow,218
2013-1-13,32,20,7,4,0,-4,70,46,21,30.12,30.04,29.97,10,10,10,9,4,,0.00,0,,225
2013-1-14,30,18,7,5,0,-5,70,46,25,30.26,30.11,30.01,10,10,10,14,7,16,0.00,1,,319
2013-1-15,39,24,8,5,-2,-6,61,38,19,30.42,30.36,30.26,10,10,10,12,5,,0.00,0,,303
2013-1-16,50,34,17,14,10,5,65,46,23,30.43,30.36,30.25,10,10,10,7,4,,0.00,0,,235
2013-1-17,55,37,19,16,14,12,74,45,20,30.39,30.31,30.22,10,10,10,8,4,,0.00,0,,234
2013-1-18,55,37,19,17,15,13,74,50,20,30.35,30.26,30.17,10,10,10,10,3,,0.00,0,,207
2013-1-19,57,38,19,18,15,13,77,48,18,30.35,30.27,30.20,10,10,10,12,3,,0.00,0,,222
2013-1-20,59,38,18,13,6,-6,66,37,7,30.31,30.22,30.11,10,10,10,8,5,,0.00,0,,209
2013-1-21,61,40,19,12,5,-6,60,32,7,30.26,30.19,30.12,10,10,10,8,4,,0.00,0,,195
2013-1-22,64,44,24,18,8,-1,54,33,8,30.31,30.22,30.15,10,10,10,10,4,,0.00,0,,191
2013-1-23,64,46,28,23,18,13,61,37,16,30.29,30.21,30.14,10,10,10,9,5,,0.00,0,,197
2013-1-24,54,48,42,46,40,24,100,79,36,30.30,30.21,30.10,10,7,2,12,6,16,0.05,6,Rain,156
2013-1-25,60,50,39,48,43,39,100,89,46,30.28,30.14,29.98,10,8,2,8,1,,0.35,7,Rain,166
2013-1-26,48,46,45,47,46,43,100,94,83,30.10,29.93,29.78,10,4,0,12,3,21,1.05,8,Fog-Rain,168
2013-1-27,50,46,39,45,41,35,93,85,74,30.02,29.91,29.81,10,9,2,16,4,22,0.29,6,Rain,186
2013-1-28,41,34,25,37,27,18,100,81,53,29.96,29.88,29.77,10,6,0,21,13,30,0.17,6,Fog-Rain-Snow,258
2013-1-29,41,28,16,26,19,12,84,66,43,30.17,30.04,29.96,10,10,10,23,8,28,0.00,3,,302
2013-1-30,48,36,24,27,23,19,84,63,36,30.30,30.24,30.19,10,10,10,10,4,,0.00,0,,312
2013-1-31,55,41,27,30,26,22,89,64,27,30.27,30.21,30.15,10,10,10,9,4,,0.00,0,,190